Location: Fort Worth, Tx
(32.7431°N, 97.3695°W)
Time: 06:17:27
(UTC-04:00)

Vanguard 1 Rocket - Pass Details

Date: 03 March 2024
Orbit: 652 x 4219 km, 34.3° (Epoch: 22 April)

Event Time Altitude Azimuth Distance (km) Brightness Sun altitude
Exits shadow 02:27:50 13° 140° (SE) 7,063 11.7 -61.7°
Maximum altitude 02:31:51 14° 130° (SE) 7,072 11.7 -61.3°
Drops below altitude 10° 02:41:54 10° 106° (ESE) 7,340 12.0 -60.3°
Sets 02:52:16 0° 86° (E) 7,968 12.5 -59.1°
